This demonstration page uses our WeatherBlox Daily Observations layout. Learn more.

Left ArrowRight Arrow

Hourly Observations for August 8, 2018

Temp ( °F °C ) Dew Point ( °F °C ) Humidity (%) Winds ( mph kmh ) Pressure ( in mb ) Visibility ( mi km ) Precip ( " mm )
12:15 am 00:15 Clear 71 21.5 71 21.5 100 100 SW 3 6 29.97 1015 10 16 0.00 0.00
12:35 am 00:35 Partly Cloudy 70 21.3 70 21.3 100 100 W 3 6 29.94 1014 10 16 0.00 0.00
12:55 am 00:55 Partly Cloudy with Light Rain 71 21.5 70 21.3 99 99 Calm 29.94 1014 10 16 0.00 0.00
1:15 am 01:15 Partly Cloudy with Light Rain 70 21.2 70 21.2 100 100 S 3 6 29.94 1014 10 16 0.00 0.00
1:35 am 01:35 Partly Cloudy 70 21 70 21 100 100 Calm 29.94 1014 10 16 0.00 0.00
1:55 am 01:55 Partly Cloudy 70 21 70 21 100 100 Calm 29.94 1014 10 16 0.00 0.00
2:15 am 02:15 Mostly Cloudy 69 20.8 69 20.8 100 100 SSW 3 6 29.97 1015 10 16 0.00 0.00
2:35 am 02:35 Cloudy 70 21 70 21 100 100 SW 3 6 29.94 1014 10 16 0.00 0.00
2:55 am 02:55 Partly Cloudy 70 20.9 70 20.9 100 100 Calm 29.91 1013 10 16 0.00 0.00
3:15 am 03:15 Clear 69 20.7 69 20.7 100 100 SW 3 6 29.91 1013 10 16 0.00 0.00
3:35 am 03:35 Mostly Cloudy 69 20.8 69 20.8 100 100 SW 3 6 29.91 1013 10 16 0.00 0.00
3:55 am 03:55 Cloudy 70 20.9 70 20.9 100 100 WSW 3 6 29.91 1013 10 16 0.00 0.00
4:15 am 04:15 Mostly Cloudy 69 20.8 69 20.8 100 100 Calm 29.97 1015 10 16 0.00 0.00
4:35 am 04:35 Cloudy with Rain 69 20.8 69 20.8 100 100 Calm 29.97 1015 10 16 0.00 0.00
4:55 am 04:55 Cloudy 70 20.9 70 20.9 100 100 WSW 3 6 29.94 1014 10 16 0.00 0.00
5:15 am 05:15 Cloudy 70 20.9 70 20.9 100 100 Calm 29.94 1014 10 16 0.00 0.00
5:35 am 05:35 Cloudy 69 20.8 69 20.8 100 100 SW 3 6 29.97 1015 10 16 0.00 0.00
5:55 am 05:55 Cloudy 69 20.7 69 20.7 100 100 Calm 29.97 1015 10 16 0.00 0.00
6:15 am 06:15 Cloudy 69 20.7 69 20.7 100 100 W 3 6 29.97 1015 10 16 0.00 0.00
6:35 am 06:35 Cloudy 70 21 70 21 100 100 Calm 29.94 1014 10 16 0.00 0.00
6:55 am 06:55 Cloudy 69 20.8 69 20.8 100 100 Calm 29.97 1015 10 16 0.00 0.00
7:15 am 07:15 Mostly Cloudy 69 20.8 69 20.8 100 100 W 3 6 29.97 1015 7 11 0.00 0.00
7:35 am 07:35 Cloudy 70 21 70 21 100 100 WSW 5 7 29.94 1014 7 11 0.00 0.00
7:55 am 07:55 Cloudy with Mist and Fog 70 21.3 70 21.3 100 100 W 7 11 29.94 1014 5 8 0.00 0.00
8:15 am 08:15 Cloudy 71 21.4 71 21.4 100 100 W 5 7 29.94 1014 7 11 0.00 0.00
8:35 am 08:35 Cloudy 71 21.5 71 21.5 100 100 W 6 9 29.94 1014 7 11 0.00 0.00
8:55 am 08:55 Cloudy 71 21.6 71 21.5 99 99 W 5 7 29.94 1014 7 11 0.00 0.00
9:15 am 09:15 Mostly Cloudy 72 22.2 71 21.6 96 96 WNW 5 7 29.94 1014 7 11 0.00 0.00
9:35 am 09:35 Mostly Cloudy 72 22.3 71 21.4 95 95 W 6 9 29.94 1014 10 16 0.00 0.00
9:55 am 09:55 Partly Cloudy 73 22.6 70 21.2 92 92 WNW 5 7 29.94 1014 10 16 0.00 0.00
10:15 am 10:15 Partly Cloudy 73 22.9 71 21.5 92 92 NW 6 9 29.94 1014 10 16 0.00 0.00
10:35 am 10:35 Mostly Cloudy 73 22.9 70 21.1 90 90 NW 6 9 29.94 1014 10 16 0.00 0.00
10:55 am 10:55 Partly Cloudy 74 23.6 71 21.4 88 88 WNW 3 6 29.94 1014 10 16 0.00 0.00
11:15 am 11:15 Mostly Cloudy 75 24.1 70 21.3 84 84 W 3 6 29.97 1015 10 16 0.00 0.00
11:35 am 11:35 Mostly Cloudy 75 24.1 71 21.4 85 85 Calm 29.94 1014 10 16 0.00 0.00
11:55 am 11:55 Mostly Cloudy 77 24.9 70 21.2 80 80 Calm 29.94 1014 10 16 0.00 0.00
12:15 pm 12:15 Partly Cloudy 78 25.5 70 21.3 78 78 Calm 29.94 1014 10 16 0.00 0.00
12:35 pm 12:35 Mostly Cloudy 77 25.2 69 20.7 76 76 SW 3 6 29.94 1014 10 16 0.00 0.00
12:55 pm 12:55 Cloudy 77 25.2 71 21.6 81 81 WSW 5 7 29.94 1014 10 16 0.00 0.00
1:15 pm 13:15 Cloudy 78 25.8 71 21.6 78 78 W 7 11 29.94 1014 10 16 0.00 0.00
1:35 pm 13:35 Mostly Cloudy 78 25.6 71 21.7 79 79 W 3 6 29.94 1014 10 16 0.00 0.00
1:55 pm 13:55 Partly Cloudy 80 26.5 71 21.7 75 75 SW 9 15 29.94 1014 10 16 0.00 0.00
2:15 pm 14:15 Partly Cloudy 81 27 72 22.3 76 76 WSW 9 15 29.94 1014 10 16 0.00 0.00
2:35 pm 14:35 Partly Cloudy 81 27.1 72 22.1 74 74 SW 13 20 29.94 1014 10 16 0.00 0.00
2:55 pm 14:55 Partly Cloudy 81 27.4 72 22.4 74 74 WSW 10 17 29.91 1013 10 16 0.00 0.00
3:15 pm 15:15 Partly Cloudy 82 27.5 71 21.7 71 71 WSW 13 20 29.91 1013 10 16 0.00 0.00
3:35 pm 15:35 Mostly Cloudy 79 26 70 20.9 74 74 W 9 15 29.91 1013 10 16 0.00 0.00
3:55 pm 15:55 Mostly Cloudy 78 25.6 70 20.9 75 75 W 10 17 29.91 1013 10 16 0.00 0.00
4:15 pm 16:15 Partly Cloudy 78 25.8 71 21.8 79 79 WSW 10 17 29.91 1013 10 16 0.00 0.00
4:35 pm 16:35 Sunny 76 24.6 69 20.5 78 78 WSW 7 11 29.91 1013 10 16 0.00 0.00
4:55 pm 16:55 Sunny 80 26.5 70 21.2 73 73 WSW 9 15 29.91 1013 10 16 0.00 0.00
5:15 pm 17:15 Partly Cloudy 79 26.1 71 21.6 76 76 SW 10 17 29.91 1013 10 16 0.00 0.00
5:35 pm 17:35 Mostly Cloudy 79 26 72 22.3 80 80 WSW 9 15 29.88 1012 10 16 0.00 0.00
5:55 pm 17:55 Mostly Cloudy 80 26.5 73 22.9 81 81 WSW 6 9 29.88 1012 10 16 0.00 0.00
6:15 pm 18:15 Partly Cloudy 79 25.9 73 22.6 82 82 W 7 11 29.91 1013 10 16 0.00 0.00
6:35 pm 18:35 Partly Cloudy 80 26.6 68 20.1 68 68 WNW 8 13 29.91 1013 10 16 0.00 0.00
6:55 pm 18:55 Sunny 80 26.5 69 20.4 69 69 WNW 9 15 29.91 1013 10 16 0.00 0.00
7:15 pm 19:15 Sunny 78 25.7 69 20.6 74 74 WNW 5 7 29.91 1013 10 16 0.00 0.00
7:35 pm 19:35 Sunny 78 25.8 68 20.1 71 71 WNW 5 7 29.91 1013 10 16 0.00 0.00
7:55 pm 19:55 Sunny 78 25.3 67 19.7 71 71 W 6 9 29.91 1013 10 16 0.00 0.00
8:15 pm 20:15 Sunny 76 24.4 67 19.7 75 75 W 6 9 29.91 1013 10 16 0.00 0.00
8:35 pm 20:35 Sunny 74 23.6 68 20 80 80 W 3 6 29.91 1013 10 16 0.00 0.00
8:55 pm 20:55 Clear 73 22.7 68 20 85 85 NNW 5 7 29.91 1013 10 16 0.00 0.00
9:15 pm 21:15 Clear 71 21.4 69 20.3 93 93 Calm 29.91 1013 10 16 0.00 0.00
9:35 pm 21:35 Clear 70 21 69 20.3 96 96 Calm 29.94 1014 10 16 0.00 0.00
9:55 pm 21:55 Clear 70 21 69 20.5 97 97 Calm 29.94 1014 10 16 0.00 0.00
10:15 pm 22:15 Clear 68 20.1 68 20.1 100 100 Calm 29.97 1015 10 16 0.00 0.00
10:35 pm 22:35 Partly Cloudy 67 19.5 67 19.5 100 100 Calm 29.97 1015 10 16 0.00 0.00
10:55 pm 22:55 Clear 66 19 66 19 100 100 Calm 29.97 1015 7 11 0.00 0.00
11:20 pm 23:20 Clear 66 19.1 66 19.1 100 100 Calm 29.97 1015 7 11 0.00 0.00
11:40 pm 23:40 Clear 66 18.7 66 18.7 100 100 Calm 29.97 1015 7 11 0.00 0.00
11:55 pm 23:55 Clear 66 18.7 66 18.7 100 100 Calm 29.97 1015 7 11 0.00 0.00

Powered by AerisWeather